Forrest, Australia

4:56 PM AWST on January 18, 2017 (GMT +0800)
Forrest

Weather History for YFRT - January, 2012

Change the Weather History Date:

Sunday, January 8, 2012

  Actual Average Record
Temperature  
Mean Temperature 70 °F -  
Max Temperature 81 °F 90 °F - ()
Min Temperature 59 °F 60 °F - ()
Cooling Degree Days 5    
Growing Degree Days 20 (Base 50)    
Moisture  
Dew Point 51 °F    
Average Humidity 54    
Maximum Humidity 94    
Minimum Humidity 21    
Precipitation  
Precipitation 0.00 in 0.02 in - ()
Sea Level Pressure  
Sea Level Pressure 29.98 in    
Wind  
Wind Speed 10 mph ()    
Max Wind Speed 18 mph    
Max Gust Speed -    
T = Trace of Precipitation, MM = Missing Value Source: Averaged Metar Reports

Daily Weather History Graph

Daily Weather History Graph

Search for Another Location

Airport or City:

Trip Planner

Search our weather history database for the weather conditions in past years. The results will help you decide how hot, cold, wet, or windy it might be!

Date:

Astronomy

Jan. 08, 2012 Rise Set
Actual Time 4:32 AM AWST 6:34 PM AWST
Civil Twilight 4:05 AM AWST 7:02 PM AWST
Nautical Twilight 3:31 AM AWST 7:35 PM AWST
Astronomical Twilight 2:56 AM AWST 8:11 PM AWST
Moon 5:41 PM AWST (1/8) 3:19 AM AWST (1/8)
Length of Visible Light 14h 57m
Length of Day
14h 02m
Waxing Gibbous, 99% of the Moon is Illuminated
Jan 8
Waxing Gibbous
Jan 9
Full
Jan 16
Last Quarter
Jan 23
New
Jan 31
First Quarter

Hourly Weather History & Observations

Time (AWST) Temp. Dew Point Humidity Pressure Visibility Wind Dir Wind Speed Gust Speed Precip Events Conditions
12:00 AM 62 °F 59 °F 86% 29.90 in - South 6.9 mph - -  
12:00 AM 62.6 °F 59.0 °F 88% 29.92 in - South 6.9 mph - N/A   Unknown
1:00 AM 62.6 °F 57.2 °F 82% 29.92 in - SSW 12.7 mph - N/A   Unknown
2:00 AM 60 °F 57 °F 87% 29.90 in - SSW 8.1 mph - -  
2:00 AM 60.8 °F 57.2 °F 88% 29.92 in - SSW 8.1 mph - N/A   Unknown
3:00 AM 61 °F 58 °F 88% 29.92 in - SSW 6.9 mph - -  
3:00 AM 60.8 °F 59.0 °F 94% 29.92 in - SSW 6.9 mph - N/A   Unknown
4:00 AM 60.8 °F 57.2 °F 88% 29.95 in - SW 6.9 mph - N/A   Unknown
5:00 AM 59 °F 56 °F 87% 29.95 in - SW 8.1 mph - -  
5:00 AM 59.0 °F 55.4 °F 88% 29.95 in - SW 8.1 mph - N/A   Unknown
6:00 AM 63 °F 54 °F 66% 29.97 in - SW 10.4 mph - -  
6:00 AM 62.6 °F 55.4 °F 77% 29.98 in - SW 10.4 mph - N/A   Unknown
7:00 AM 64.4 °F 50.0 °F 59% 29.98 in - SSW 15.0 mph - N/A   Unknown
8:00 AM 69 °F 50 °F 40% 29.99 in - SSW 16.1 mph - -  
8:00 AM 69.8 °F 50.0 °F 49% 30.01 in - SSW 16.1 mph - N/A   Unknown
9:00 AM 72 °F 49 °F 32% 29.99 in - SSW 17.3 mph - -  
9:00 AM 71.6 °F 48.2 °F 43% 30.01 in - SSW 17.3 mph - N/A   Unknown
10:00 AM 73.4 °F 50.0 °F 44% 30.01 in - SW 13.8 mph - N/A   Unknown
11:00 AM 75 °F 49 °F 29% 29.97 in - SSW 13.8 mph - -  
11:00 AM 75.2 °F 48.2 °F 38% 29.98 in - SSW 13.8 mph - N/A   Unknown
12:00 PM 77 °F 46 °F 23% 29.96 in - WSW 15.0 mph - -  
12:00 PM 77.0 °F 46.4 °F 34% 29.98 in - WSW 15.0 mph - N/A   Unknown
1:00 PM 80.6 °F 46.4 °F 30% 29.95 in - WSW 11.5 mph - N/A   Unknown
2:00 PM 79 °F 46 °F 21% 29.93 in - SW 13.8 mph - -  
2:00 PM 78.8 °F 46.4 °F 32% 29.95 in - SW 13.8 mph - N/A   Unknown
3:00 PM 80 °F 47 °F 21% 29.93 in - South 13.8 mph - -  
3:00 PM 80.6 °F 46.4 °F 30% 29.95 in - South 13.8 mph - N/A   Unknown
4:00 PM 78.8 °F 46.4 °F 32% 29.95 in - SSW 16.1 mph - N/A   Unknown
5:00 PM 76 °F 48 °F 27% 29.95 in - South 18.4 mph - -  
5:00 PM 75.2 °F 48.2 °F 38% 29.95 in - South 18.4 mph - N/A   Unknown
6:00 PM 72 °F 48 °F 32% 29.97 in - South 18.4 mph - -  
6:00 PM 71.6 °F 48.2 °F 43% 29.98 in - South 18.4 mph - N/A   Unknown
7:00 PM 66.2 °F 48.2 °F 52% 30.01 in - SSE 16.1 mph - N/A   Unknown
8:00 PM 64 °F 49 °F 47% 30.04 in - SSE 15.0 mph - -  
8:00 PM 64.4 °F 48.2 °F 56% 30.04 in - SSE 15.0 mph - N/A   Unknown
9:00 PM 63 °F 49 °F 49% 30.07 in - SSE 13.8 mph - -  
9:00 PM 62.6 °F 48.2 °F 59% 30.09 in - SSE 13.8 mph - N/A   Unknown
10:00 PM 60.8 °F 48.2 °F 63% 30.06 in - SSE 11.5 mph - N/A   Unknown
11:00 PM 60 °F 48 °F 54% 30.07 in - SE 8.1 mph - -  
11:00 PM 60.8 °F 48.2 °F 63% 30.06 in - SE 8.1 mph - N/A   Unknown